Location: Banff
(51.1667°N, 115.5667°W)
Time: 07:44:44
(UTC+00:00)

Vanguard 1 - Pass Details

Date: 04 December 2020
Orbit: 648 x 3834 km, 34.3° (Epoch: 22 January)

Event Time Altitude Azimuth Distance (km) Brightness Sun altitude
Rises 14:34:27 0° 248° (WSW) 3,628 12.6 -8.2°
Reaches altitude 10° 14:37:16 10° 232° (SW) 2,982 12.3 -7.8°
Maximum altitude 14:42:46 22° 183° (S) 2,782 12.7 -7.0°
Drops below altitude 10° 14:50:53 10° 139° (SE) 4,590 14.9 -5.9°
Sets 14:56:41 0° 128° (SE) 6,227 16.6 -5.1°
